Regional Weather Roundup
Issued by NWS

Home | Current Version | Previous Version | Graphics & Text | Print | Product List | Glossary On
Versions: 1 2 3 4 5 6 7 8 9 10 11 12 13 14 15 16 17 18 19 20 21 22 23 24 25 26 27 28 29 30 31 32 33 34 35 36 37 38 39 40 41 42 43 44 45 46 47 48 49 50
000
ASUS43 KBIS 121410
RWRND

NORTH DAKOTA REGIONAL WEATHER ROUNDUP
NATIONAL WEATHER SERVICE BISMARCK ND
800 AM CST TUE DEC 12 2017

NOTE: "FAIR" INDICATES FEW OR NO CLOUDS BELOW 12,000 FEET WITH NO
SIGNIFICANT WEATHER AND/OR OBSTRUCTIONS TO VISIBILITY.


NDZ001>003-009>011-017-121500-
NORTHWEST NORTH DAKOTA

CITY           SKY/WX    TMP DP  RH WIND       PRES   REMARKS
WILLISTON      CLEAR     27  21  80 SW3       30.04F
MINOT          CLOUDY    32  24  72 SW13G24   29.96F
MINOT AFB      CLOUDY    31  23  73 W8        29.95F
$$

NDZ018>021-031>035-040>046-121500-
SOUTHWEST NORTH DAKOTA

CITY           SKY/WX    TMP DP  RH WIND       PRES   REMARKS
BISMARCK       CLOUDY    25  23  92 SW7       30.07F WCI  17
DICKINSON      CLOUDY    30  22  72 W16       30.02F WCI  19
GARRISON         N/A     26  24  92 W9        30.00F WCI  17
HETTINGER ARPT CLOUDY    21  17  84 W6        30.09F WCI  13
$$

NDZ004>008-012>016-024-026-027-054-121500-
NORTHEAST NORTH DAKOTA

CITY           SKY/WX    TMP DP  RH WIND       PRES   REMARKS
GRAND FORKS    CLOUDY    20  17  88 S12       30.04F WCI   8
GRND FRKS AFB  CLOUDY    21  18  87 S8        30.02F WCI  12
DEVILS LAKE    PTCLDY    27  24  89 W8        29.99F WCI  19
$$

NDZ022-023-025-028>030-036>039-047>053-121500-
SOUTHEAST NORTH DAKOTA

CITY           SKY/WX    TMP DP  RH WIND       PRES   REMARKS
FARGO          CLOUDY    20  17  88 S9        30.09F WCI   9
JAMESTOWN      CLOUDY    24  22  91 SW9       30.03F WCI  14
$$





USA.gov is the U.S. government's official web portal to all federal, state and local government web resources and services.